N242EA KASE-KSQL

Flight info

Callsign N242EA
Flight time N/A
Altitude 30000
Route LINDZ JNC MLF KATTS MOD BORED KLIDE
Aircraft SF50/L-BDGRSWY/LB2U2

Departure

Time 2026-04-29 09:30
Airport Aspen-Pitkin County Airport (Sardy Field) (KASE)

Arrival

Time N/A
Airport San Carlos Airport (KSQL)
Time Latitude Longitude Altitude Speed Heading
2026-04-29 09:06 39.22243 -106.86614 7771 ft 0 kts 68°
2026-04-29 09:26 39.22242 -106.86607 7753 ft 0 kts 156°
2026-04-29 09:26 39.22228 -106.86627 7755 ft 11 kts 249°
2026-04-29 09:27 39.22209 -106.86715 7756 ft 9 kts 334°
2026-04-29 09:27 39.22307 -106.86761 7748 ft 20 kts 339°
2026-04-29 09:27 39.22433 -106.86820 7740 ft 19 kts 339°
2026-04-29 09:27 39.22549 -106.86876 7737 ft 16 kts 340°
2026-04-29 09:28 39.22658 -106.86928 7727 ft 17 kts 339°
2026-04-29 09:28 39.22768 -106.86980 7720 ft 17 kts 340°
2026-04-29 09:28 39.22881 -106.87036 7710 ft 8 kts 339°
2026-04-29 09:28 39.22899 -106.87053 7712 ft 3 kts 290°
2026-04-29 09:29 39.22901 -106.87071 7711 ft 0 kts 268°
2026-04-29 09:29 39.22871 -106.87149 7711 ft 0 kts 172°
2026-04-29 09:29 39.22862 -106.87144 7715 ft 11 kts 157°
2026-04-29 09:30 39.22626 -106.87032 7729 ft 60 kts 160°
2026-04-29 09:30 39.22088 -106.86778 7768 ft 102 kts 160°
2026-04-29 09:30 39.21375 -106.86402 8050 ft 116 kts 160°
2026-04-29 09:30 39.20611 -106.85973 8435 ft 124 kts 157°
2026-04-29 09:31 39.19815 -106.85493 8906 ft 127 kts 153°
2026-04-29 09:31 39.18982 -106.85073 9322 ft 127 kts 174°
2026-04-29 09:31 39.18249 -106.85655 9593 ft 142 kts 252°
2026-04-29 09:31 39.18604 -106.86883 9951 ft 165 kts 322°
2026-04-29 09:32 39.19514 -106.87769 10561 ft 165 kts 321°
2026-04-29 09:32 39.20358 -106.88778 11215 ft 165 kts 309°
2026-04-29 09:32 39.21072 -106.89892 11860 ft 156 kts 307°
2026-04-29 09:32 39.21775 -106.90918 12431 ft 150 kts 307°
2026-04-29 09:33 39.22453 -106.91906 12988 ft 145 kts 306°
2026-04-29 09:33 39.23104 -106.92851 13549 ft 140 kts 305°
2026-04-29 09:33 39.23745 -106.93783 14018 ft 137 kts 304°
2026-04-29 09:33 39.24374 -106.94692 14501 ft 134 kts 303°
2026-04-29 09:34 39.25002 -106.95569 14932 ft 133 kts 307°
2026-04-29 09:34 39.25608 -106.96446 15332 ft 129 kts 301°
2026-04-29 09:34 39.26192 -106.97330 15750 ft 130 kts 302°
2026-04-29 09:34 39.26789 -106.98208 16168 ft 131 kts 302°
2026-04-29 09:35 39.27395 -106.99085 16594 ft 131 kts 302°
2026-04-29 09:35 39.27998 -106.99960 17025 ft 130 kts 302°
2026-04-29 09:35 39.28602 -107.00842 17405 ft 132 kts 302°
2026-04-29 09:35 39.29257 -107.01794 17524 ft 153 kts 303°
2026-04-29 09:36 39.30024 -107.02900 17578 ft 176 kts 304°
2026-04-29 09:36 39.30887 -107.04140 17610 ft 195 kts 305°
2026-04-29 09:36 39.31829 -107.05500 17618 ft 211 kts 305°
2026-04-29 09:36 39.32842 -107.06965 17630 ft 224 kts 305°
2026-04-29 09:37 39.33897 -107.08501 17624 ft 233 kts 305°
2026-04-29 09:37 39.34988 -107.10091 17632 ft 240 kts 306°
2026-04-29 09:37 39.36108 -107.11713 17805 ft 238 kts 306°
2026-04-29 09:37 39.37029 -107.13312 18576 ft 206 kts 294°
2026-04-29 09:38 39.37622 -107.14879 19262 ft 187 kts 285°
2026-04-29 09:38 39.37976 -107.16479 19597 ft 185 kts 277°
2026-04-29 09:38 39.38128 -107.18120 19968 ft 182 kts 269°
2026-04-29 09:38 39.38075 -107.19745 20320 ft 180 kts 261°
2026-04-29 09:39 39.37823 -107.21358 20451 ft 190 kts 254°
2026-04-29 09:39 39.37485 -107.23025 20767 ft 189 kts 255°
2026-04-29 09:39 39.37175 -107.24648 21091 ft 188 kts 255°
2026-04-29 09:39 39.36853 -107.26303 21409 ft 187 kts 255°
2026-04-29 09:40 39.36540 -107.27910 21690 ft 187 kts 255°
2026-04-29 09:40 39.36225 -107.29542 22031 ft 186 kts 255°
2026-04-29 09:40 39.35905 -107.31163 22342 ft 186 kts 254°
2026-04-29 09:40 39.35591 -107.32776 22664 ft 185 kts 255°
2026-04-29 09:41 39.35278 -107.34385 23033 ft 183 kts 254°
2026-04-29 09:41 39.34964 -107.35977 23364 ft 183 kts 254°
2026-04-29 09:41 39.34652 -107.37570 23697 ft 182 kts 254°
2026-04-29 09:41 39.34344 -107.39151 23996 ft 181 kts 254°
2026-04-29 09:42 39.34038 -107.40715 24286 ft 180 kts 254°
2026-04-29 09:42 39.33728 -107.42286 24574 ft 179 kts 254°
2026-04-29 09:42 39.33423 -107.43837 24890 ft 177 kts 254°
2026-04-29 09:42 39.33121 -107.45371 25219 ft 175 kts 254°
2026-04-29 09:43 39.32822 -107.46887 25539 ft 173 kts 254°
2026-04-29 09:43 39.32527 -107.48386 25862 ft 172 kts 255°
2026-04-29 09:43 39.32233 -107.49877 26160 ft 170 kts 254°
2026-04-29 09:43 39.31948 -107.51328 26492 ft 168 kts 255°
2026-04-29 09:44 39.31658 -107.52799 26847 ft 166 kts 255°
2026-04-29 09:44 39.31379 -107.54217 27188 ft 164 kts 255°
2026-04-29 09:44 39.31099 -107.55637 27532 ft 162 kts 255°
2026-04-29 09:44 39.30822 -107.57038 27845 ft 160 kts 254°
2026-04-29 09:45 39.30548 -107.58426 28144 ft 159 kts 255°
2026-04-29 09:45 39.30277 -107.59800 28431 ft 157 kts 255°
2026-04-29 09:45 39.30007 -107.61163 28737 ft 155 kts 255°
2026-04-29 09:45 39.29740 -107.62504 29038 ft 154 kts 255°
2026-04-29 09:46 39.29476 -107.63834 29336 ft 152 kts 255°
2026-04-29 09:46 39.29213 -107.65152 29615 ft 151 kts 255°
2026-04-29 09:46 39.28955 -107.66458 29899 ft 149 kts 255°
2026-04-29 09:46 39.28695 -107.67755 30126 ft 151 kts 255°
2026-04-29 09:47 39.28424 -107.69121 30135 ft 162 kts 255°
2026-04-29 09:47 39.28139 -107.70567 30133 ft 171 kts 255°
2026-04-29 09:47 39.27837 -107.72088 30134 ft 177 kts 255°
2026-04-29 09:47 39.27526 -107.73659 30132 ft 184 kts 255°
2026-04-29 09:48 39.27206 -107.75280 30114 ft 189 kts 255°
2026-04-29 09:48 39.26872 -107.76952 30120 ft 195 kts 255°
2026-04-29 09:48 39.26531 -107.78672 30118 ft 200 kts 255°
2026-04-29 09:48 39.26181 -107.80434 30121 ft 205 kts 255°
2026-04-29 09:49 39.25822 -107.82240 30117 ft 210 kts 255°
2026-04-29 09:49 39.25452 -107.84085 30121 ft 215 kts 255°
2026-04-29 09:49 39.25074 -107.85972 30120 ft 219 kts 255°
2026-04-29 09:49 39.24688 -107.87891 30116 ft 222 kts 255°
2026-04-29 09:50 39.24298 -107.89834 30102 ft 226 kts 255°
2026-04-29 09:50 39.23902 -107.91809 30101 ft 228 kts 255°
2026-04-29 09:50 39.23500 -107.93801 30096 ft 231 kts 255°
2026-04-29 09:50 39.23095 -107.95816 30097 ft 233 kts 255°
2026-04-29 09:51 39.22684 -107.97851 30096 ft 235 kts 255°
2026-04-29 09:51 39.22273 -107.99897 30099 ft 236 kts 255°
2026-04-29 09:51 39.21859 -108.01950 30101 ft 238 kts 255°
2026-04-29 09:51 39.21441 -108.04023 30078 ft 239 kts 255°
2026-04-29 09:52 39.21022 -108.06097 30082 ft 240 kts 255°
2026-04-29 09:52 39.20601 -108.08181 30080 ft 240 kts 255°
2026-04-29 09:52 39.20177 -108.10271 30081 ft 242 kts 255°
2026-04-29 09:52 39.19754 -108.12362 30086 ft 239 kts 255°
2026-04-29 09:53 39.19333 -108.14434 30086 ft 238 kts 255°
2026-04-29 09:53 39.18921 -108.16463 30080 ft 236 kts 255°
2026-04-29 09:53 39.18506 -108.18502 30080 ft 235 kts 255°
2026-04-29 09:53 39.18091 -108.20533 30084 ft 235 kts 255°
2026-04-29 09:54 39.17674 -108.22574 30082 ft 235 kts 255°
2026-04-29 09:54 39.17259 -108.24620 30090 ft 235 kts 255°
2026-04-29 09:54 39.16841 -108.26661 30092 ft 235 kts 255°
2026-04-29 09:54 39.16425 -108.28693 30096 ft 235 kts 255°
2026-04-29 09:55 39.16008 -108.30730 30107 ft 236 kts 255°
2026-04-29 09:55 39.15600 -108.32766 30111 ft 234 kts 255°
2026-04-29 09:55 39.15165 -108.34787 30120 ft 234 kts 253°
2026-04-29 09:55 39.14733 -108.36819 30124 ft 236 kts 255°
2026-04-29 09:56 39.14319 -108.38852 30128 ft 235 kts 255°
2026-04-29 09:56 39.13903 -108.40898 30129 ft 236 kts 255°
2026-04-29 09:56 39.13482 -108.42949 30133 ft 237 kts 254°
2026-04-29 09:56 39.13057 -108.45007 30130 ft 238 kts 254°
2026-04-29 09:57 39.12630 -108.47072 30129 ft 238 kts 254°
2026-04-29 09:57 39.12206 -108.49135 30128 ft 239 kts 254°
2026-04-29 09:57 39.11784 -108.51178 30128 ft 239 kts 254°
2026-04-29 09:57 39.11355 -108.53250 30129 ft 239 kts 254°
2026-04-29 09:58 39.10926 -108.55324 30133 ft 240 kts 254°
2026-04-29 09:58 39.10496 -108.57398 30134 ft 240 kts 254°
2026-04-29 09:58 39.10065 -108.59479 30134 ft 239 kts 254°
2026-04-29 09:58 39.09637 -108.61539 30133 ft 238 kts 254°
2026-04-29 09:59 39.09212 -108.63590 30131 ft 237 kts 254°
2026-04-29 09:59 39.08787 -108.65637 30125 ft 236 kts 254°
2026-04-29 09:59 39.08364 -108.67672 30117 ft 235 kts 254°
2026-04-29 09:59 39.07940 -108.69706 30109 ft 235 kts 254°
2026-04-29 10:00 39.07514 -108.71746 30101 ft 237 kts 254°
2026-04-29 10:00 39.07089 -108.73789 30094 ft 237 kts 254°
2026-04-29 10:00 39.06661 -108.75839 30025 ft 237 kts 254°
2026-04-29 10:00 39.06232 -108.77888 30038 ft 238 kts 253°
2026-04-29 10:01 39.05836 -108.79961 30030 ft 239 kts 257°
2026-04-29 10:01 39.05544 -108.82072 30031 ft 240 kts 257°
2026-04-29 10:01 39.05230 -108.84172 30030 ft 239 kts 257°
2026-04-29 10:01 39.04917 -108.86277 30027 ft 239 kts 257°
2026-04-29 10:02 39.04610 -108.88378 30029 ft 239 kts 257°
2026-04-29 10:02 39.04304 -108.90471 30027 ft 239 kts 257°
2026-04-29 10:02 39.03994 -108.92566 30028 ft 238 kts 257°
2026-04-29 10:02 39.03684 -108.94660 30030 ft 238 kts 257°
2026-04-29 10:03 39.03376 -108.96754 30028 ft 238 kts 257°
2026-04-29 10:03 39.03066 -108.98843 30027 ft 238 kts 257°
2026-04-29 10:03 39.02757 -109.00932 30028 ft 238 kts 257°
2026-04-29 10:03 39.02452 -109.02995 30026 ft 237 kts 257°
2026-04-29 10:04 39.02143 -109.05078 30030 ft 237 kts 257°
2026-04-29 10:04 39.01837 -109.07158 30024 ft 237 kts 257°
2026-04-29 10:04 39.01525 -109.09235 30026 ft 237 kts 257°
2026-04-29 10:04 39.01214 -109.11321 30026 ft 238 kts 257°
2026-04-29 10:05 39.00903 -109.13409 30024 ft 239 kts 257°
2026-04-29 10:05 39.00586 -109.15509 30031 ft 239 kts 257°
2026-04-29 10:05 39.00272 -109.17616 30027 ft 241 kts 257°
2026-04-29 10:05 38.99956 -109.19742 30028 ft 242 kts 257°
2026-04-29 10:06 38.99637 -109.21869 30032 ft 242 kts 257°
2026-04-29 10:06 38.99319 -109.23988 30030 ft 242 kts 257°
2026-04-29 10:06 38.98999 -109.26112 30028 ft 242 kts 257°
2026-04-29 10:06 38.98788 -109.27518 30029 ft 241 kts 257°
2026-04-29 10:07 38.98469 -109.29632 30029 ft 241 kts 257°
2026-04-29 10:07 38.98149 -109.31750 30028 ft 241 kts 257°
2026-04-29 10:07 38.97832 -109.33861 30028 ft 241 kts 257°
2026-04-29 10:07 38.97512 -109.35975 30026 ft 240 kts 257°
2026-04-29 10:08 38.97194 -109.38083 30026 ft 240 kts 257°
2026-04-29 10:08 38.96874 -109.40185 30029 ft 240 kts 257°
2026-04-29 10:08 38.96554 -109.42291 30030 ft 240 kts 257°
2026-04-29 10:08 38.96235 -109.44392 30029 ft 239 kts 257°
2026-04-29 10:09 38.95916 -109.46489 30035 ft 239 kts 256°
2026-04-29 10:09 38.95594 -109.48595 30034 ft 242 kts 256°
2026-04-29 10:09 38.95269 -109.50721 30033 ft 243 kts 256°
2026-04-29 10:09 38.94943 -109.52859 30038 ft 244 kts 256°
2026-04-29 10:10 38.94616 -109.54997 30041 ft 243 kts 256°
2026-04-29 10:10 38.94289 -109.57130 30040 ft 243 kts 256°
2026-04-29 10:10 38.93962 -109.59260 30039 ft 242 kts 256°
2026-04-29 10:10 38.93638 -109.61379 30039 ft 242 kts 256°
2026-04-29 10:11 38.93312 -109.63498 30039 ft 242 kts 256°
2026-04-29 10:11 38.92986 -109.65616 30038 ft 241 kts 256°
2026-04-29 10:11 38.92665 -109.67699 30035 ft 241 kts 256°
2026-04-29 10:11 38.92340 -109.69811 30086 ft 241 kts 256°
2026-04-29 10:12 38.92014 -109.71917 30086 ft 241 kts 256°
2026-04-29 10:12 38.91688 -109.74023 30089 ft 241 kts 256°
2026-04-29 10:12 38.91360 -109.76133 30090 ft 241 kts 256°
2026-04-29 10:12 38.91034 -109.78238 30090 ft 241 kts 256°
2026-04-29 10:13 38.90706 -109.80350 30094 ft 241 kts 256°
2026-04-29 10:13 38.90377 -109.82460 30093 ft 241 kts 256°
2026-04-29 10:13 38.90050 -109.84564 30087 ft 241 kts 256°
2026-04-29 10:13 38.89722 -109.86669 30086 ft 240 kts 256°
2026-04-29 10:14 38.89391 -109.88781 30084 ft 240 kts 256°
2026-04-29 10:14 38.89066 -109.90866 30088 ft 240 kts 256°
2026-04-29 10:14 38.88754 -109.92864 30080 ft 240 kts 256°
2026-04-29 10:14 38.88424 -109.94970 30077 ft 240 kts 256°
2026-04-29 10:15 38.88094 -109.97072 30071 ft 240 kts 256°
2026-04-29 10:15 38.87764 -109.99169 30069 ft 240 kts 256°
2026-04-29 10:15 38.87435 -110.01273 30064 ft 240 kts 256°
2026-04-29 10:15 38.87105 -110.03365 30062 ft 240 kts 256°
2026-04-29 10:16 38.86773 -110.05468 30059 ft 241 kts 256°
2026-04-29 10:16 38.86441 -110.07571 30060 ft 242 kts 256°
2026-04-29 10:16 38.86107 -110.09692 30056 ft 243 kts 256°
2026-04-29 10:16 38.85770 -110.11817 30057 ft 243 kts 256°
2026-04-29 10:17 38.85433 -110.13943 30056 ft 243 kts 255°
2026-04-29 10:17 38.85098 -110.16057 30044 ft 240 kts 255°
2026-04-29 10:17 38.84765 -110.18152 30037 ft 238 kts 255°
2026-04-29 10:17 38.84432 -110.20230 30037 ft 238 kts 255°
2026-04-29 10:18 38.84100 -110.22320 30045 ft 239 kts 255°
2026-04-29 10:18 38.83769 -110.24408 30041 ft 239 kts 255°
2026-04-29 10:18 38.83439 -110.26479 30042 ft 240 kts 255°
2026-04-29 10:18 38.83103 -110.28575 30039 ft 240 kts 255°
2026-04-29 10:19 38.82768 -110.30676 30041 ft 241 kts 255°
2026-04-29 10:19 38.82431 -110.32782 30042 ft 241 kts 255°
2026-04-29 10:19 38.82092 -110.34895 30050 ft 242 kts 255°
2026-04-29 10:19 38.81753 -110.37008 30053 ft 242 kts 255°
2026-04-29 10:20 38.81415 -110.39111 30049 ft 241 kts 255°
2026-04-29 10:20 38.81077 -110.41211 30052 ft 240 kts 255°
2026-04-29 10:20 38.80740 -110.43298 30047 ft 239 kts 255°
2026-04-29 10:20 38.80404 -110.45382 30046 ft 238 kts 255°
2026-04-29 10:21 38.80067 -110.47461 30090 ft 238 kts 255°
2026-04-29 10:21 38.79727 -110.49553 30058 ft 240 kts 255°
2026-04-29 10:21 38.79390 -110.51649 30063 ft 241 kts 255°
2026-04-29 10:21 38.79048 -110.53749 30062 ft 241 kts 255°
2026-04-29 10:22 38.78705 -110.55858 30061 ft 241 kts 255°
2026-04-29 10:22 38.78369 -110.57935 30063 ft 241 kts 255°
2026-04-29 10:22 38.78027 -110.60045 30064 ft 242 kts 255°
2026-04-29 10:22 38.77678 -110.62187 30072 ft 243 kts 255°
2026-04-29 10:23 38.77331 -110.64316 30073 ft 244 kts 255°
2026-04-29 10:23 38.76988 -110.66413 30074 ft 243 kts 255°
2026-04-29 10:23 38.76643 -110.68533 30072 ft 242 kts 255°
2026-04-29 10:23 38.76299 -110.70638 30069 ft 241 kts 255°
2026-04-29 10:24 38.75955 -110.72731 30071 ft 240 kts 255°
2026-04-29 10:24 38.75612 -110.74818 30077 ft 240 kts 255°
2026-04-29 10:24 38.75268 -110.76910 30076 ft 241 kts 255°
2026-04-29 10:24 38.74921 -110.79018 30079 ft 242 kts 255°
2026-04-29 10:25 38.74573 -110.81129 30091 ft 242 kts 255°
2026-04-29 10:25 38.74224 -110.83247 30077 ft 243 kts 255°
2026-04-29 10:25 38.73875 -110.85360 30078 ft 242 kts 255°
2026-04-29 10:25 38.73526 -110.87466 30083 ft 242 kts 255°
2026-04-29 10:26 38.73183 -110.89549 30083 ft 242 kts 255°
2026-04-29 10:26 38.72834 -110.91655 30083 ft 242 kts 254°
2026-04-29 10:26 38.72486 -110.93758 30082 ft 242 kts 255°
2026-04-29 10:26 38.72136 -110.95867 30084 ft 242 kts 254°
2026-04-29 10:27 38.71437 -111.00070 30083 ft 240 kts 254°
2026-04-29 10:27 38.71089 -111.02154 30086 ft 239 kts 254°
2026-04-29 10:27 38.70743 -111.04243 30089 ft 240 kts 254°
2026-04-29 10:28 38.70394 -111.06337 30092 ft 241 kts 254°
2026-04-29 10:28 38.70041 -111.08436 30092 ft 242 kts 254°
2026-04-29 10:28 38.69686 -111.10543 30091 ft 242 kts 254°
2026-04-29 10:28 38.69333 -111.12654 30098 ft 242 kts 254°
2026-04-29 10:29 38.68864 -111.14712 30101 ft 241 kts 244°
2026-04-29 10:29 38.67823 -111.16409 30102 ft 246 kts 227°
2026-04-29 10:29 38.66464 -111.17765 30099 ft 250 kts 219°
2026-04-29 10:29 38.64918 -111.18857 30099 ft 256 kts 212°
2026-04-29 10:30 38.63233 -111.19646 30101 ft 260 kts 204°
2026-04-29 10:30 38.61614 -111.20555 30088 ft 250 kts 220°
2026-04-29 10:30 38.60448 -111.22132 30086 ft 244 kts 239°
2026-04-29 10:30 38.59896 -111.24147 30085 ft 247 kts 258°
2026-04-29 10:31 38.59891 -111.26363 30094 ft 251 kts 266°
2026-04-29 10:31 38.59920 -111.28614 30106 ft 249 kts 263°
2026-04-29 10:31 38.59764 -111.30772 30109 ft 246 kts 257°
2026-04-29 10:31 38.59445 -111.32916 30109 ft 246 kts 255°
2026-04-29 10:32 38.59129 -111.35063 30109 ft 246 kts 256°
2026-04-29 10:32 38.58851 -111.37223 30112 ft 246 kts 257°
2026-04-29 10:32 38.58575 -111.39373 30111 ft 245 kts 257°
2026-04-29 10:32 38.58291 -111.41524 30119 ft 245 kts 257°
2026-04-29 10:33 38.58005 -111.43668 30119 ft 244 kts 257°
2026-04-29 10:33 38.57722 -111.45805 30120 ft 244 kts 257°
2026-04-29 10:33 38.57438 -111.47947 30119 ft 244 kts 257°
2026-04-29 10:33 38.57154 -111.50083 30121 ft 245 kts 257°
2026-04-29 10:34 38.56870 -111.52231 30120 ft 245 kts 257°
2026-04-29 10:34 38.56585 -111.54374 30125 ft 245 kts 257°
2026-04-29 10:34 38.56300 -111.56525 30128 ft 246 kts 257°
2026-04-29 10:34 38.56010 -111.58683 30130 ft 247 kts 257°
2026-04-29 10:35 38.55720 -111.60846 30129 ft 247 kts 257°
2026-04-29 10:35 38.55431 -111.63012 30130 ft 247 kts 257°
2026-04-29 10:35 38.55142 -111.65169 30123 ft 245 kts 257°
2026-04-29 10:35 38.54855 -111.67311 30121 ft 244 kts 256°
2026-04-29 10:36 38.54569 -111.69438 30122 ft 243 kts 256°
2026-04-29 10:36 38.54281 -111.71568 30120 ft 244 kts 257°
2026-04-29 10:36 38.53993 -111.73703 30119 ft 244 kts 256°
2026-04-29 10:36 38.53705 -111.75838 30119 ft 245 kts 256°
2026-04-29 10:37 38.53414 -111.77986 30124 ft 247 kts 256°
2026-04-29 10:37 38.53119 -111.80155 30116 ft 249 kts 257°
2026-04-29 10:37 38.52825 -111.82330 30119 ft 248 kts 257°
2026-04-29 10:37 38.52531 -111.84500 30119 ft 247 kts 257°
2026-04-29 10:38 38.52237 -111.86661 30120 ft 247 kts 257°
2026-04-29 10:38 38.51942 -111.88825 30119 ft 247 kts 257°
2026-04-29 10:38 38.51647 -111.90989 30118 ft 247 kts 257°
2026-04-29 10:38 38.51353 -111.93149 30121 ft 248 kts 257°
2026-04-29 10:39 38.51055 -111.95324 30117 ft 249 kts 257°
2026-04-29 10:39 38.50760 -111.97476 30117 ft 250 kts 257°
2026-04-29 10:39 38.50456 -111.99691 30116 ft 251 kts 257°
2026-04-29 10:39 38.50159 -112.01854 30121 ft 250 kts 257°
2026-04-29 10:40 38.49859 -112.04035 30121 ft 249 kts 257°
2026-04-29 10:40 38.49553 -112.06242 30122 ft 250 kts 257°
2026-04-29 10:40 38.49251 -112.08428 30112 ft 250 kts 257°
2026-04-29 10:40 38.48948 -112.10616 30119 ft 251 kts 257°
2026-04-29 10:41 38.48645 -112.12813 30123 ft 252 kts 257°
2026-04-29 10:41 38.48342 -112.15016 30112 ft 254 kts 257°
2026-04-29 10:41 38.48034 -112.17223 30118 ft 255 kts 257°
2026-04-29 10:41 38.47727 -112.19437 30116 ft 253 kts 257°
2026-04-29 10:42 38.47420 -112.21647 30114 ft 252 kts 257°
2026-04-29 10:42 38.47114 -112.23838 30111 ft 250 kts 257°
2026-04-29 10:42 38.46808 -112.26027 30111 ft 251 kts 257°
2026-04-29 10:42 38.46500 -112.28224 30115 ft 252 kts 257°
2026-04-29 10:43 38.46191 -112.30437 30111 ft 254 kts 257°
2026-04-29 10:43 38.45880 -112.32659 30109 ft 255 kts 257°
2026-04-29 10:43 38.45566 -112.34894 30115 ft 255 kts 257°
2026-04-29 10:43 38.45253 -112.37120 30113 ft 254 kts 257°
2026-04-29 10:44 38.44937 -112.39342 30105 ft 253 kts 257°
2026-04-29 10:44 38.44621 -112.41557 30120 ft 255 kts 257°
2026-04-29 10:44 38.44313 -112.43742 30117 ft 253 kts 257°
2026-04-29 10:44 38.44002 -112.45955 30119 ft 253 kts 258°
2026-04-29 10:45 38.43686 -112.48171 30124 ft 256 kts 258°
2026-04-29 10:45 38.43373 -112.50418 30126 ft 258 kts 258°
2026-04-29 10:45 38.43050 -112.52713 30128 ft 261 kts 258°
2026-04-29 10:45 38.42728 -112.54970 30122 ft 262 kts 258°
2026-04-29 10:46 38.42403 -112.57261 30133 ft 262 kts 258°
2026-04-29 10:46 38.42077 -112.59545 30132 ft 262 kts 258°
2026-04-29 10:46 38.41750 -112.61834 30136 ft 261 kts 258°
2026-04-29 10:46 38.41425 -112.64109 30140 ft 261 kts 258°
2026-04-29 10:47 38.41098 -112.66377 30143 ft 260 kts 258°
2026-04-29 10:47 38.40773 -112.68638 30147 ft 259 kts 258°
2026-04-29 10:47 38.40450 -112.70890 30153 ft 258 kts 258°
2026-04-29 10:47 38.40125 -112.73148 30154 ft 259 kts 258°
2026-04-29 10:48 38.39798 -112.75415 30159 ft 260 kts 258°
2026-04-29 10:48 38.39472 -112.77672 30163 ft 260 kts 258°
2026-04-29 10:48 38.39142 -112.79933 30167 ft 260 kts 259°
2026-04-29 10:48 38.38813 -112.82214 30171 ft 262 kts 259°
2026-04-29 10:49 38.38482 -112.84512 30176 ft 265 kts 259°
2026-04-29 10:49 38.38148 -112.86827 30183 ft 267 kts 259°
2026-04-29 10:49 38.37810 -112.89160 30190 ft 268 kts 259°
2026-04-29 10:49 38.37584 -112.90706 30193 ft 267 kts 259°
2026-04-29 10:50 38.37246 -112.93029 30195 ft 266 kts 259°
2026-04-29 10:50 38.36909 -112.95346 30194 ft 266 kts 259°
2026-04-29 10:50 38.36570 -112.97664 30194 ft 265 kts 259°
2026-04-29 10:50 38.36232 -112.99972 30192 ft 265 kts 259°
2026-04-29 10:51 38.36037 -113.02300 30189 ft 264 kts 268°
2026-04-29 10:51 38.36063 -113.04644 30189 ft 264 kts 269°
2026-04-29 10:51 38.36071 -113.06980 30188 ft 264 kts 268°
2026-04-29 10:51 38.36076 -113.09334 30187 ft 266 kts 269°
2026-04-29 10:52 38.36089 -113.11694 30182 ft 267 kts 270°
2026-04-29 10:52 38.36103 -113.14062 30180 ft 268 kts 269°
2026-04-29 10:52 38.36113 -113.16446 30175 ft 269 kts 269°
2026-04-29 10:52 38.36125 -113.18837 30173 ft 271 kts 269°
2026-04-29 10:53 38.36136 -113.21243 30173 ft 271 kts 269°
2026-04-29 10:53 38.36146 -113.23614 30169 ft 270 kts 269°
2026-04-29 10:53 38.36155 -113.26003 30163 ft 269 kts 269°
2026-04-29 10:53 38.36164 -113.28388 30158 ft 269 kts 269°
2026-04-29 10:54 38.36173 -113.30763 30154 ft 268 kts 270°
2026-04-29 10:54 38.36182 -113.33140 30150 ft 268 kts 269°
2026-04-29 10:54 38.36189 -113.35509 30145 ft 268 kts 269°
2026-04-29 10:54 38.36195 -113.37877 30146 ft 267 kts 269°
2026-04-29 10:55 38.36201 -113.40248 30136 ft 267 kts 269°
2026-04-29 10:55 38.36207 -113.42615 30133 ft 268 kts 269°
2026-04-29 10:55 38.36213 -113.44994 30124 ft 269 kts 270°
2026-04-29 10:55 38.36218 -113.47379 30124 ft 270 kts 270°
2026-04-29 10:56 38.36222 -113.49773 30135 ft 271 kts 270°
2026-04-29 10:56 38.36226 -113.52181 30135 ft 272 kts 270°
2026-04-29 10:56 38.36230 -113.54598 30136 ft 273 kts 270°
2026-04-29 10:56 38.36234 -113.57012 30134 ft 272 kts 270°
2026-04-29 10:57 38.36236 -113.59414 30135 ft 269 kts 270°
2026-04-29 10:57 38.36229 -113.61784 30127 ft 268 kts 269°
2026-04-29 10:57 38.36231 -113.64173 30138 ft 270 kts 270°
2026-04-29 10:57 38.36232 -113.66571 30140 ft 271 kts 270°
2026-04-29 10:58 38.36233 -113.68976 30142 ft 272 kts 270°
2026-04-29 10:58 38.36233 -113.71388 30141 ft 273 kts 270°
2026-04-29 10:58 38.36233 -113.73806 30142 ft 273 kts 270°
2026-04-29 10:58 38.36232 -113.76222 30142 ft 272 kts 271°
2026-04-29 10:59 38.36231 -113.78622 30140 ft 271 kts 271°
2026-04-29 10:59 38.36228 -113.81024 30139 ft 271 kts 271°
2026-04-29 10:59 38.36226 -113.83395 30138 ft 270 kts 271°
2026-04-29 10:59 38.36224 -113.85783 30138 ft 270 kts 271°
2026-04-29 11:00 38.36220 -113.88169 30142 ft 269 kts 271°
2026-04-29 11:00 38.36218 -113.90549 30147 ft 269 kts 271°
2026-04-29 11:00 38.36214 -113.92935 30149 ft 270 kts 271°
2026-04-29 11:00 38.36209 -113.95335 30149 ft 271 kts 271°
2026-04-29 11:01 38.36205 -113.97752 30152 ft 272 kts 271°
2026-04-29 11:01 38.36200 -114.00179 30155 ft 273 kts 271°
2026-04-29 11:01 38.36194 -114.02587 30153 ft 273 kts 271°
2026-04-29 11:01 38.36187 -114.05016 30150 ft 275 kts 271°
2026-04-29 11:02 38.36180 -114.07455 30127 ft 276 kts 272°
2026-04-29 11:02 38.36173 -114.09897 30139 ft 277 kts 273°
2026-04-29 11:02 38.36164 -114.12363 30140 ft 278 kts 273°
2026-04-29 11:02 38.36155 -114.14829 30139 ft 279 kts 273°
2026-04-29 11:03 38.36145 -114.17310 30137 ft 280 kts 273°
2026-04-29 11:03 38.36136 -114.19786 30138 ft 278 kts 273°
2026-04-29 11:03 38.36125 -114.22241 30136 ft 277 kts 273°
2026-04-29 11:03 38.36114 -114.24662 30136 ft 276 kts 273°
2026-04-29 11:04 38.36103 -114.27131 30130 ft 275 kts 273°
2026-04-29 11:04 38.36092 -114.29568 30131 ft 276 kts 273°
2026-04-29 11:04 38.36081 -114.31991 30132 ft 277 kts 272°
2026-04-29 11:04 38.36068 -114.34453 30134 ft 278 kts 273°
2026-04-29 11:05 38.36058 -114.36922 30130 ft 279 kts 272°
2026-04-29 11:05 38.36041 -114.39386 30108 ft 277 kts 273°
2026-04-29 11:05 38.36026 -114.41824 30121 ft 275 kts 274°
2026-04-29 11:05 38.36012 -114.44254 30123 ft 273 kts 274°
2026-04-29 11:06 38.35997 -114.46669 30127 ft 273 kts 274°
2026-04-29 11:06 38.35981 -114.49088 30125 ft 273 kts 274°
2026-04-29 11:06 38.35964 -114.51502 30123 ft 273 kts 274°
2026-04-29 11:06 38.35948 -114.53923 30123 ft 273 kts 273°
2026-04-29 11:07 38.35930 -114.56336 30120 ft 273 kts 273°
2026-04-29 11:07 38.35913 -114.58756 30120 ft 273 kts 273°
2026-04-29 11:07 38.35894 -114.61175 30120 ft 273 kts 273°
2026-04-29 11:07 38.35876 -114.63598 30119 ft 273 kts 273°
2026-04-29 11:08 38.35857 -114.66011 30115 ft 272 kts 273°
2026-04-29 11:08 38.35838 -114.68428 30116 ft 273 kts 273°
2026-04-29 11:08 38.35819 -114.70854 30118 ft 274 kts 273°
2026-04-29 11:08 38.35798 -114.73284 30119 ft 275 kts 273°
2026-04-29 11:09 38.35777 -114.75717 30115 ft 275 kts 273°
2026-04-29 11:09 38.35756 -114.78154 30110 ft 274 kts 273°
2026-04-29 11:09 38.35733 -114.80583 30109 ft 274 kts 273°
2026-04-29 11:09 38.35710 -114.83011 30110 ft 274 kts 273°
2026-04-29 11:10 38.35687 -114.85433 30111 ft 273 kts 273°
2026-04-29 11:10 38.35663 -114.87854 30111 ft 273 kts 273°
2026-04-29 11:10 38.35638 -114.90268 30110 ft 272 kts 273°
2026-04-29 11:10 38.35614 -114.92649 30109 ft 271 kts 273°
2026-04-29 11:11 38.35589 -114.95058 30117 ft 272 kts 273°
2026-04-29 11:11 38.35564 -114.97479 30116 ft 274 kts 273°
2026-04-29 11:11 38.35537 -114.99909 30119 ft 275 kts 273°
2026-04-29 11:11 38.35511 -115.02346 30062 ft 272 kts 271°
2026-04-29 11:12 38.35483 -115.04696 30117 ft 264 kts 272°
2026-04-29 11:12 38.35457 -115.07038 30114 ft 265 kts 272°
2026-04-29 11:12 38.35432 -115.09390 30114 ft 266 kts 272°
2026-04-29 11:12 38.35404 -115.11745 30115 ft 266 kts 272°
2026-04-29 11:13 38.35376 -115.14100 30114 ft 266 kts 272°
2026-04-29 11:13 38.35347 -115.16459 30109 ft 266 kts 272°
2026-04-29 11:13 38.35319 -115.18813 30110 ft 266 kts 272°
2026-04-29 11:13 38.35288 -115.21169 30109 ft 266 kts 272°
2026-04-29 11:14 38.35258 -115.23531 30114 ft 266 kts 272°
2026-04-29 11:14 38.35227 -115.25896 30114 ft 266 kts 272°
2026-04-29 11:14 38.35195 -115.28254 30114 ft 266 kts 272°
2026-04-29 11:14 38.35163 -115.30615 30114 ft 266 kts 272°
2026-04-29 11:15 38.35131 -115.32969 30105 ft 266 kts 271°
2026-04-29 11:15 38.35099 -115.35323 30113 ft 265 kts 271°
2026-04-29 11:15 38.35066 -115.37673 30113 ft 266 kts 271°
2026-04-29 11:15 38.35033 -115.40032 30115 ft 266 kts 271°
2026-04-29 11:16 38.34999 -115.42389 30119 ft 267 kts 271°
2026-04-29 11:16 38.34965 -115.44753 30120 ft 267 kts 271°
2026-04-29 11:16 38.34930 -115.47117 30120 ft 267 kts 271°
2026-04-29 11:16 38.34902 -115.49449 30117 ft 266 kts 271°
2026-04-29 11:17 38.34869 -115.51811 30122 ft 267 kts 270°
2026-04-29 11:17 38.34822 -115.54186 30125 ft 268 kts 270°
2026-04-29 11:17 38.34784 -115.56563 30127 ft 268 kts 271°
2026-04-29 11:17 38.34748 -115.58930 30125 ft 266 kts 270°
2026-04-29 11:18 38.34711 -115.61279 30124 ft 265 kts 270°
2026-04-29 11:18 38.34672 -115.63621 30130 ft 264 kts 270°
2026-04-29 11:18 38.34633 -115.65951 30129 ft 263 kts 270°
2026-04-29 11:18 38.34594 -115.68288 30129 ft 264 kts 270°
2026-04-29 11:19 38.34555 -115.70630 30129 ft 264 kts 270°
2026-04-29 11:19 38.34515 -115.72977 30129 ft 265 kts 270°
2026-04-29 11:19 38.34475 -115.75325 30130 ft 265 kts 270°
2026-04-29 11:19 38.34435 -115.77672 30133 ft 266 kts 270°
2026-04-29 11:20 38.34394 -115.80030 30133 ft 266 kts 270°
2026-04-29 11:20 38.34352 -115.82390 30134 ft 266 kts 270°
2026-04-29 11:20 38.34310 -115.84747 30134 ft 266 kts 270°
2026-04-29 11:20 38.34267 -115.87112 30134 ft 267 kts 270°
2026-04-29 11:21 38.34224 -115.89472 30134 ft 267 kts 270°
2026-04-29 11:21 38.34179 -115.91833 30134 ft 267 kts 270°
2026-04-29 11:21 38.34134 -115.94196 30133 ft 267 kts 270°
2026-04-29 11:21 38.34089 -115.96563 30135 ft 266 kts 269°
2026-04-29 11:22 38.34045 -115.98907 30129 ft 264 kts 269°
2026-04-29 11:22 38.33999 -116.01239 30152 ft 263 kts 269°
2026-04-29 11:22 38.33952 -116.03590 30139 ft 266 kts 269°
2026-04-29 11:22 38.33905 -116.05949 30140 ft 268 kts 269°
2026-04-29 11:23 38.33859 -116.08242 30144 ft 269 kts 269°
2026-04-29 11:23 38.33811 -116.10608 30152 ft 263 kts 269°
2026-04-29 11:23 38.33765 -116.12855 30136 ft 256 kts 269°
2026-04-29 11:23 38.33722 -116.15137 30132 ft 260 kts 269°
2026-04-29 11:24 38.33672 -116.17458 30136 ft 263 kts 269°
2026-04-29 11:24 38.33622 -116.19799 30138 ft 265 kts 269°
2026-04-29 11:24 38.33573 -116.22162 30140 ft 268 kts 269°
2026-04-29 11:24 38.33523 -116.24535 30141 ft 269 kts 269°
2026-04-29 11:25 38.33471 -116.26921 30130 ft 268 kts 269°
2026-04-29 11:25 38.33419 -116.29284 30128 ft 266 kts 269°
2026-04-29 11:25 38.33367 -116.31642 30126 ft 265 kts 269°
2026-04-29 11:25 38.33250 -116.33985 30128 ft 265 kts 263°
2026-04-29 11:26 38.32623 -116.38632 30128 ft 267 kts 263°
2026-04-29 11:26 38.32324 -116.40970 30132 ft 268 kts 262°
2026-04-29 11:26 38.32011 -116.43313 30131 ft 269 kts 262°
2026-04-29 11:27 38.31697 -116.45664 30137 ft 270 kts 262°
2026-04-29 11:27 38.31385 -116.48016 30136 ft 269 kts 262°
2026-04-29 11:27 38.31073 -116.50366 30137 ft 268 kts 262°
2026-04-29 11:27 38.30762 -116.52698 30136 ft 267 kts 262°
2026-04-29 11:28 38.30450 -116.55034 30135 ft 267 kts 262°
2026-04-29 11:28 38.30139 -116.57360 30127 ft 265 kts 262°
2026-04-29 11:28 38.29829 -116.59675 30133 ft 266 kts 262°
2026-04-29 11:28 38.29519 -116.61996 30129 ft 267 kts 262°
2026-04-29 11:29 38.29203 -116.64337 30133 ft 268 kts 262°
2026-04-29 11:29 38.28889 -116.66670 30136 ft 268 kts 262°
2026-04-29 11:29 38.28573 -116.69008 30138 ft 268 kts 262°
2026-04-29 11:29 38.28260 -116.71328 30138 ft 269 kts 262°
2026-04-29 11:30 38.27942 -116.73677 30138 ft 269 kts 262°
2026-04-29 11:30 38.27625 -116.76014 30141 ft 267 kts 262°
2026-04-29 11:30 38.27312 -116.78328 30144 ft 265 kts 262°
2026-04-29 11:30 38.26997 -116.80640 30153 ft 265 kts 262°
2026-04-29 11:31 38.26682 -116.82957 30152 ft 267 kts 262°
2026-04-29 11:31 38.26366 -116.85284 30158 ft 268 kts 262°
2026-04-29 11:31 38.26047 -116.87620 30162 ft 268 kts 262°
2026-04-29 11:31 38.25727 -116.89958 30171 ft 269 kts 262°
2026-04-29 11:32 38.25407 -116.92307 30177 ft 269 kts 262°
2026-04-29 11:32 38.25191 -116.93891 30178 ft 268 kts 262°
2026-04-29 11:32 38.24874 -116.96199 30181 ft 267 kts 262°
2026-04-29 11:32 38.24554 -116.98522 30183 ft 267 kts 262°
2026-04-29 11:33 38.24235 -117.00844 30187 ft 266 kts 262°
2026-04-29 11:33 38.23916 -117.03155 30189 ft 265 kts 262°
2026-04-29 11:33 38.23596 -117.05468 30191 ft 265 kts 262°
2026-04-29 11:33 38.23277 -117.07771 30190 ft 264 kts 262°
2026-04-29 11:34 38.22957 -117.10082 30190 ft 266 kts 262°
2026-04-29 11:34 38.22636 -117.12397 30190 ft 266 kts 262°
2026-04-29 11:34 38.22313 -117.14718 30194 ft 267 kts 262°
2026-04-29 11:34 38.21990 -117.17045 30193 ft 268 kts 262°
2026-04-29 11:35 38.21666 -117.19377 30137 ft 267 kts 262°
2026-04-29 11:35 38.21343 -117.21695 30140 ft 266 kts 262°
2026-04-29 11:35 38.21019 -117.24018 30133 ft 266 kts 262°
2026-04-29 11:35 38.20695 -117.26333 30133 ft 266 kts 262°
2026-04-29 11:36 38.20370 -117.28656 30133 ft 267 kts 262°
2026-04-29 11:36 38.20044 -117.30978 30133 ft 267 kts 262°
2026-04-29 11:36 38.19717 -117.33301 30134 ft 267 kts 262°
2026-04-29 11:36 38.19390 -117.35620 30131 ft 267 kts 262°
2026-04-29 11:37 38.19062 -117.37941 30130 ft 267 kts 262°
2026-04-29 11:37 38.18734 -117.40261 30130 ft 266 kts 262°
2026-04-29 11:37 38.18407 -117.42576 30129 ft 266 kts 262°
2026-04-29 11:37 38.18078 -117.44894 30129 ft 266 kts 262°
2026-04-29 11:38 38.17752 -117.47203 30129 ft 266 kts 262°
2026-04-29 11:38 38.17425 -117.49509 30127 ft 265 kts 262°
2026-04-29 11:38 38.17097 -117.51811 30127 ft 265 kts 262°
2026-04-29 11:38 38.16769 -117.54112 30126 ft 265 kts 262°
2026-04-29 11:39 38.16441 -117.56415 30130 ft 264 kts 262°
2026-04-29 11:39 38.16113 -117.58711 30130 ft 264 kts 262°
2026-04-29 11:39 38.15784 -117.61016 30130 ft 266 kts 262°
2026-04-29 11:39 38.15452 -117.63335 30132 ft 268 kts 262°
2026-04-29 11:40 38.15115 -117.65671 30134 ft 269 kts 262°
2026-04-29 11:40 38.14779 -117.68019 30132 ft 271 kts 262°
2026-04-29 11:40 38.14440 -117.70377 30130 ft 270 kts 262°
2026-04-29 11:40 38.14102 -117.72721 30124 ft 269 kts 262°
2026-04-29 11:41 38.13764 -117.75055 30121 ft 269 kts 262°
2026-04-29 11:41 38.13431 -117.77355 30120 ft 267 kts 262°
2026-04-29 11:41 38.13091 -117.79701 30119 ft 266 kts 262°
2026-04-29 11:41 38.12758 -117.81987 30120 ft 266 kts 262°
2026-04-29 11:42 38.12419 -117.84333 30109 ft 268 kts 262°
2026-04-29 11:42 38.12081 -117.86662 30110 ft 269 kts 262°
2026-04-29 11:42 38.11741 -117.88999 30111 ft 270 kts 262°
2026-04-29 11:42 38.11399 -117.91341 30111 ft 271 kts 262°
2026-04-29 11:43 38.11055 -117.93696 30114 ft 271 kts 262°
2026-04-29 11:43 38.10717 -117.96008 30113 ft 270 kts 262°
2026-04-29 11:43 38.10375 -117.98343 30107 ft 269 kts 262°
2026-04-29 11:43 38.10033 -118.00674 30106 ft 268 kts 262°
2026-04-29 11:44 38.09693 -118.02998 30110 ft 267 kts 262°
2026-04-29 11:44 38.09351 -118.05319 30109 ft 267 kts 262°
2026-04-29 11:44 38.09008 -118.07633 30092 ft 266 kts 262°
2026-04-29 11:44 38.08668 -118.09944 30098 ft 268 kts 262°
2026-04-29 11:45 38.08324 -118.12280 30098 ft 270 kts 262°
2026-04-29 11:45 38.07976 -118.14629 30097 ft 271 kts 262°
2026-04-29 11:45 38.07625 -118.16983 30101 ft 270 kts 262°
2026-04-29 11:45 38.07277 -118.19321 30097 ft 269 kts 262°
2026-04-29 11:46 38.06930 -118.21661 30095 ft 269 kts 262°
2026-04-29 11:46 38.06584 -118.23994 30094 ft 269 kts 262°
2026-04-29 11:46 38.06238 -118.26324 30094 ft 269 kts 262°
2026-04-29 11:46 38.05888 -118.28659 30092 ft 268 kts 262°
2026-04-29 11:47 38.05542 -118.30982 30097 ft 268 kts 262°
2026-04-29 11:47 38.05196 -118.33300 30087 ft 267 kts 262°
2026-04-29 11:47 38.04851 -118.35585 30088 ft 267 kts 262°
2026-04-29 11:47 38.04501 -118.37923 30084 ft 266 kts 262°
2026-04-29 11:48 38.04153 -118.40245 30087 ft 269 kts 262°
2026-04-29 11:48 38.03802 -118.42577 30090 ft 271 kts 262°
2026-04-29 11:48 38.03451 -118.44899 30094 ft 272 kts 262°
2026-04-29 11:48 38.03095 -118.47247 30097 ft 271 kts 262°
2026-04-29 11:49 38.02741 -118.49593 30094 ft 270 kts 262°
2026-04-29 11:49 38.02388 -118.51927 30093 ft 269 kts 262°
2026-04-29 11:49 38.02033 -118.54264 30093 ft 269 kts 262°
2026-04-29 11:49 38.01679 -118.56591 30106 ft 269 kts 262°
2026-04-29 11:50 38.01326 -118.58915 30104 ft 269 kts 262°
2026-04-29 11:50 38.00973 -118.61242 30103 ft 268 kts 262°
2026-04-29 11:50 38.00620 -118.63561 30100 ft 267 kts 262°
2026-04-29 11:50 38.00267 -118.65876 30103 ft 269 kts 262°
2026-04-29 11:51 37.99910 -118.68212 30129 ft 270 kts 262°
2026-04-29 11:51 37.99552 -118.70555 30128 ft 272 kts 262°
2026-04-29 11:51 37.99191 -118.72913 30124 ft 273 kts 262°
2026-04-29 11:51 37.98828 -118.75282 30126 ft 273 kts 262°
2026-04-29 11:52 37.98465 -118.77644 30121 ft 272 kts 262°
2026-04-29 11:52 37.98102 -118.79993 30141 ft 271 kts 262°
2026-04-29 11:52 37.97741 -118.82333 30144 ft 270 kts 262°
2026-04-29 11:52 37.97381 -118.84671 30144 ft 270 kts 262°
2026-04-29 11:53 37.97019 -118.87004 30144 ft 270 kts 262°
2026-04-29 11:53 37.96656 -118.89344 30149 ft 270 kts 262°
2026-04-29 11:53 37.96301 -118.91647 30172 ft 270 kts 262°
2026-04-29 11:53 37.95939 -118.93974 30172 ft 269 kts 262°
2026-04-29 11:54 37.95572 -118.96333 30153 ft 269 kts 262°
2026-04-29 11:54 37.95209 -118.98669 30165 ft 272 kts 262°
2026-04-29 11:54 37.94843 -119.01026 30165 ft 274 kts 262°
2026-04-29 11:54 37.94473 -119.03395 30182 ft 275 kts 262°
2026-04-29 11:55 37.94101 -119.05781 30194 ft 276 kts 262°
2026-04-29 11:55 37.93728 -119.08162 30196 ft 275 kts 262°
2026-04-29 11:55 37.93356 -119.10533 30184 ft 274 kts 262°
2026-04-29 11:55 37.92992 -119.12866 30183 ft 273 kts 262°
2026-04-29 11:56 37.92621 -119.15218 30192 ft 273 kts 262°
2026-04-29 11:56 37.92249 -119.17571 30192 ft 272 kts 262°
2026-04-29 11:56 37.91875 -119.19950 30193 ft 272 kts 262°
2026-04-29 11:56 37.91509 -119.22276 30193 ft 273 kts 262°
2026-04-29 11:57 37.91135 -119.24639 30206 ft 275 kts 262°
2026-04-29 11:57 37.90757 -119.27024 30193 ft 276 kts 262°
2026-04-29 11:57 37.90378 -119.29415 30194 ft 278 kts 262°
2026-04-29 11:57 37.89998 -119.31820 30201 ft 279 kts 262°
2026-04-29 11:58 37.89616 -119.34222 30196 ft 278 kts 262°
2026-04-29 11:58 37.89235 -119.36614 30197 ft 277 kts 262°
2026-04-29 11:58 37.88853 -119.39006 30194 ft 276 kts 262°
2026-04-29 11:58 37.88475 -119.41387 30194 ft 276 kts 262°
2026-04-29 11:59 37.88095 -119.43771 30191 ft 275 kts 262°
2026-04-29 11:59 37.87716 -119.46139 30211 ft 275 kts 263°
2026-04-29 11:59 37.87337 -119.48507 30196 ft 274 kts 263°
2026-04-29 11:59 37.86956 -119.50881 30202 ft 275 kts 263°
2026-04-29 12:00 37.86575 -119.53257 30208 ft 276 kts 263°
2026-04-29 12:00 37.86193 -119.55639 30199 ft 277 kts 263°
2026-04-29 12:00 37.85804 -119.58044 30198 ft 280 kts 263°
2026-04-29 12:00 37.85413 -119.60459 30196 ft 281 kts 263°
2026-04-29 12:01 37.85023 -119.62876 30201 ft 280 kts 263°
2026-04-29 12:01 37.84631 -119.65294 30202 ft 280 kts 263°
2026-04-29 12:01 37.84241 -119.67709 30201 ft 280 kts 263°
2026-04-29 12:01 37.83850 -119.70121 30202 ft 279 kts 263°
2026-04-29 12:02 37.83464 -119.72500 30198 ft 279 kts 263°
2026-04-29 12:02 37.83075 -119.74897 30196 ft 278 kts 263°
2026-04-29 12:02 37.82686 -119.77289 30200 ft 277 kts 263°
2026-04-29 12:02 37.82296 -119.79678 30202 ft 277 kts 263°
2026-04-29 12:03 37.81907 -119.82077 30202 ft 279 kts 263°
2026-04-29 12:03 37.81512 -119.84486 30188 ft 279 kts 263°
2026-04-29 12:03 37.81117 -119.86903 30189 ft 282 kts 263°
2026-04-29 12:03 37.80717 -119.89339 30192 ft 284 kts 263°
2026-04-29 12:04 37.80315 -119.91788 30195 ft 285 kts 263°
2026-04-29 12:04 37.79911 -119.94232 30189 ft 284 kts 263°
2026-04-29 12:04 37.79509 -119.96676 30189 ft 282 kts 263°
2026-04-29 12:04 37.79110 -119.99103 30187 ft 282 kts 263°
2026-04-29 12:05 37.78709 -120.01525 30187 ft 281 kts 263°
2026-04-29 12:05 37.78310 -120.03938 30186 ft 281 kts 263°
2026-04-29 12:05 37.77909 -120.06366 30181 ft 282 kts 263°
2026-04-29 12:05 37.77508 -120.08795 30181 ft 283 kts 263°
2026-04-29 12:06 37.77103 -120.11234 30181 ft 284 kts 263°
2026-04-29 12:06 37.76697 -120.13677 30178 ft 285 kts 263°
2026-04-29 12:06 37.76290 -120.16135 30179 ft 287 kts 263°
2026-04-29 12:06 37.75879 -120.18605 30173 ft 288 kts 263°
2026-04-29 12:07 37.75464 -120.21090 30174 ft 290 kts 263°
2026-04-29 12:07 37.75048 -120.23579 30175 ft 289 kts 263°
2026-04-29 12:07 37.74636 -120.26030 30131 ft 289 kts 263°
2026-04-29 12:07 37.74220 -120.28534 29763 ft 291 kts 263°
2026-04-29 12:08 37.73800 -120.31019 29390 ft 287 kts 263°
2026-04-29 12:08 37.73388 -120.33460 29018 ft 282 kts 263°
2026-04-29 12:08 37.72985 -120.35873 28653 ft 280 kts 263°
2026-04-29 12:08 37.72581 -120.38279 28287 ft 281 kts 263°
2026-04-29 12:09 37.72167 -120.40725 27882 ft 283 kts 263°
2026-04-29 12:09 37.71760 -120.43147 27526 ft 288 kts 263°
2026-04-29 12:09 37.71339 -120.45631 27141 ft 289 kts 263°
2026-04-29 12:09 37.70918 -120.48111 26758 ft 289 kts 263°
2026-04-29 12:10 37.70499 -120.50588 26376 ft 288 kts 263°
2026-04-29 12:10 37.70081 -120.53055 25990 ft 287 kts 263°
2026-04-29 12:10 37.69663 -120.55518 25613 ft 286 kts 262°
2026-04-29 12:10 37.69243 -120.57987 25233 ft 288 kts 262°
2026-04-29 12:11 37.68821 -120.60455 24852 ft 288 kts 262°
2026-04-29 12:11 37.68400 -120.62934 24460 ft 289 kts 262°
2026-04-29 12:11 37.67977 -120.65407 24079 ft 289 kts 262°
2026-04-29 12:11 37.67553 -120.67884 23693 ft 287 kts 262°
2026-04-29 12:12 37.67140 -120.70363 23277 ft 291 kts 262°
2026-04-29 12:12 37.66693 -120.72865 22886 ft 293 kts 261°
2026-04-29 12:12 37.66249 -120.75383 22492 ft 295 kts 262°
2026-04-29 12:12 37.65819 -120.77916 22102 ft 296 kts 262°
2026-04-29 12:13 37.65384 -120.80457 21711 ft 296 kts 262°
2026-04-29 12:13 37.65093 -120.82139 21453 ft 296 kts 262°
2026-04-29 12:13 37.64654 -120.84676 21063 ft 297 kts 262°
2026-04-29 12:13 37.64211 -120.87230 20671 ft 297 kts 262°
2026-04-29 12:14 37.63775 -120.89765 20285 ft 298 kts 262°
2026-04-29 12:14 37.63329 -120.92342 19886 ft 301 kts 262°
2026-04-29 12:14 37.62751 -120.94888 19493 ft 306 kts 253°
2026-04-29 12:14 37.61756 -120.97285 19083 ft 313 kts 242°
2026-04-29 12:15 37.60416 -120.99487 18674 ft 317 kts 236°
2026-04-29 12:15 37.59045 -121.01665 18239 ft 318 kts 236°
2026-04-29 12:15 37.57676 -121.03875 17647 ft 319 kts 236°
2026-04-29 12:15 37.56305 -121.06068 17213 ft 319 kts 236°
2026-04-29 12:16 37.54924 -121.08267 16793 ft 321 kts 235°
2026-04-29 12:16 37.53539 -121.10479 16368 ft 322 kts 235°
2026-04-29 12:16 37.52146 -121.12699 15942 ft 323 kts 235°
2026-04-29 12:16 37.50764 -121.14900 15523 ft 314 kts 235°
2026-04-29 12:17 37.49457 -121.16976 15145 ft 296 kts 234°
2026-04-29 12:17 37.48208 -121.18965 14783 ft 289 kts 235°
2026-04-29 12:17 37.46947 -121.20979 14408 ft 290 kts 234°
2026-04-29 12:17 37.45698 -121.22967 14031 ft 289 kts 234°
2026-04-29 12:18 37.44464 -121.24924 13628 ft 288 kts 234°
2026-04-29 12:18 37.43231 -121.26881 13252 ft 283 kts 233°
2026-04-29 12:18 37.42014 -121.28812 12884 ft 281 kts 233°
2026-04-29 12:18 37.40802 -121.30735 12518 ft 280 kts 233°
2026-04-29 12:19 37.39592 -121.32653 12152 ft 279 kts 233°
2026-04-29 12:19 37.38388 -121.34561 11787 ft 276 kts 233°
2026-04-29 12:19 37.37196 -121.36445 11428 ft 274 kts 233°
2026-04-29 12:19 37.36017 -121.38313 11068 ft 272 kts 233°
2026-04-29 12:20 37.34848 -121.40161 10714 ft 269 kts 232°
2026-04-29 12:20 37.33684 -121.42000 10369 ft 267 kts 231°
2026-04-29 12:20 37.32535 -121.43819 10011 ft 264 kts 231°
2026-04-29 12:20 37.31397 -121.45616 9650 ft 262 kts 231°
2026-04-29 12:21 37.30299 -121.47445 9306 ft 262 kts 234°
2026-04-29 12:21 37.29246 -121.49270 8966 ft 261 kts 233°
2026-04-29 12:21 37.28174 -121.51104 8624 ft 260 kts 233°
2026-04-29 12:21 37.27103 -121.52945 8287 ft 261 kts 234°
2026-04-29 12:22 37.26039 -121.54779 7951 ft 259 kts 234°
2026-04-29 12:22 37.24975 -121.56610 7607 ft 259 kts 234°
2026-04-29 12:22 37.23915 -121.58430 7269 ft 258 kts 234°
2026-04-29 12:22 37.22858 -121.60245 6936 ft 258 kts 234°
2026-04-29 12:23 37.21802 -121.62059 6588 ft 257 kts 234°
2026-04-29 12:23 37.20746 -121.63874 6239 ft 257 kts 234°
2026-04-29 12:23 37.19696 -121.65674 5900 ft 256 kts 234°
2026-04-29 12:23 37.18681 -121.67507 5554 ft 255 kts 240°
2026-04-29 12:24 37.18101 -121.69543 5227 ft 239 kts 259°
2026-04-29 12:24 37.17996 -121.71539 4987 ft 221 kts 275°
2026-04-29 12:24 37.18282 -121.73395 4898 ft 217 kts 289°
2026-04-29 12:24 37.18925 -121.75096 4788 ft 216 kts 303°
2026-04-29 12:25 37.19853 -121.76575 4666 ft 216 kts 312°
2026-04-29 12:25 37.20889 -121.77926 4527 ft 216 kts 321°
2026-04-29 12:25 37.23114 -121.79902 4040 ft 190 kts 326°
2026-04-29 12:26 37.24186 -121.80785 3749 ft 183 kts 328°
2026-04-29 12:26 37.25243 -121.81668 3316 ft 184 kts 327°
2026-04-29 12:26 37.26282 -121.82554 2912 ft 176 kts 325°
2026-04-29 12:26 37.27245 -121.83460 2547 ft 170 kts 324°
2026-04-29 12:27 37.28185 -121.84339 2153 ft 168 kts 323°
2026-04-29 12:27 37.29078 -121.85208 1912 ft 157 kts 323°
2026-04-29 12:27 37.29902 -121.86070 1646 ft 150 kts 320°
2026-04-29 12:27 37.30701 -121.86932 1309 ft 145 kts 319°
2026-04-29 12:28 37.31400 -121.87719 1217 ft 127 kts 318°
2026-04-29 12:28 37.32008 -121.88409 1058 ft 106 kts 318°
2026-04-29 12:28 37.32533 -121.88995 837 ft 101 kts 320°
2026-04-29 12:28 37.33086 -121.89557 714 ft 100 kts 321°
2026-04-29 12:29 37.33627 -121.90124 598 ft 102 kts 319°
2026-04-29 12:29 37.34163 -121.90715 467 ft 103 kts 319°
2026-04-29 12:29 37.34706 -121.91296 326 ft 103 kts 319°
2026-04-29 12:29 37.35245 -121.91885 184 ft 104 kts 320°
2026-04-29 12:30 37.35792 -121.92472 65 ft 101 kts 319°
2026-04-29 12:30 37.36245 -121.92965 51 ft 73 kts 320°
2026-04-29 12:30 37.36567 -121.93314 42 ft 43 kts 319°
2026-04-29 12:30 37.36645 -121.93402 42 ft 0 kts 318°
2026-04-29 12:31 37.36718 -121.93406 41 ft 17 kts 33°
2026-04-29 12:31 37.36775 -121.93348 40 ft 0 kts 49°
2026-04-29 12:32 37.36777 -121.93345 40 ft 3 kts 49°
2026-04-29 12:32 37.36812 -121.93296 40 ft 13 kts 49°
2026-04-29 12:32 37.36880 -121.93199 39 ft 14 kts 49°
2026-04-29 12:33 37.36952 -121.93161 36 ft 15 kts 325°
2026-04-29 12:33 37.37028 -121.93244 37 ft 12 kts 318°
2026-04-29 12:33 37.37078 -121.93298 38 ft 8 kts 318°
2026-04-29 12:33 37.37135 -121.93339 38 ft 11 kts 43°
2026-04-29 12:34 37.37176 -121.93280 38 ft 5 kts 49°
2026-04-29 12:34 37.37197 -121.93227 38 ft 12 kts 95°
2026-04-29 12:34 37.37154 -121.93152 38 ft 0 kts 179°